Theta_e
319 317 316 316 315 314 313 311 310 309 308 308 307 307 307 307 306 307 308 309 310 310 310 311 310 309 310 309 307 307 308 308 308 309 309 308 307 307 305 304 304 304 304
316 315 314 313 313 313 311 310 309 308 308 307 307 307 308 308 308 307 308 308 309 310 310 311 309 309 310 310 309 310 310 309 308 308 308 307 306 307 306 305 304 304 304
314 313 312 312 312 311 310 309 309 308 307 307 307 308 307 307 307 307 307 308 309 309 309 310 309 310 310 309 309 309 309 308 308 307 307 307 306 307 307 306 305 305 304
312 311 311 311 311 310 309 308 308 308 307 307 307 307 307 307 307 307 308 309 309 309 309 309 309 309 308 308 309 308 307 308 308 307 307 307 307 307 307 306 304 305 306
311 310 310 310 310 309 308 308 308 308 307 306 307 307 307 306 306 308 308 308 309 310 309 309 308 307 306 306 306 307 308 307 307 306 306 306 307 307 306 306 304 304 304
311 310 309 309 309 309 308 308 307 306 306 306 306 307 306 305 306 307 307 309 309 309 309 309 308 307 306 305 305 305 304 304 305 305 305 306 306 306 306 305 305 304 305
310 309 309 308 308 308 307 307 307 306 306 306 306 307 306 305 306 306 307 308 308 307 307 307 306 305 304 303 305 307 307 305 304 304 306 306 306 305 306 306 305 303 304
309 308 308 308 307 307 307 307 307 307 306 306 305 306 305 305 306 306 307 307 307 306 305 304 303 302 300 300 304 307 308 308 306 305 304 305 305 306 307 306 306 305 306
309 308 307 307 307 307 307 307 307 307 306 305 305 305 305 304 305 306 305 306 306 305 303 301 298 299 298 301 304 306 308 308 306 306 307 308 308 309 309 308 307 304 307
307 307 306 306 307 307 307 307 307 307 305 305 304 303 303 303 304 304 305 305 305 303 302 300 297 298 299 300 302 303 305 304 305 307 309 309 309 310 310 309 309 305 305
306 306 306 306 307 307 307 306 306 305 304 304 304 303 303 302 301 302 302 302 301 301 299 298 298 298 299 299 299 298 298 299 304 307 309 309 308 308 307 310 310 308 306
306 306 306 306 305 305 304 304 303 304 304 304 305 304 303 301 299 299 299 297 295 298 297 296 296 297 298 297 296 298 298 301 304 306 307 307 307 307 307 308 311 310 310
306 306 306 304 304 303 304 304 304 304 305 304 305 305 303 302 300 298 296 293 292 295 294 293 294 295 295 297 296 296 298 300 301 303 303 304 306 305 308 309 310 311 313
306 306 305 304 303 303 303 303 304 304 305 304 303 303 303 302 299 297 296 295 293 294 294 294 293 294 294 295 297 297 297 297 298 300 301 303 305 306 308 308 308 308 310
305 305 304 303 303 303 302 302 301 300 301 303 302 301 303 301 294 291 290 291 292 291 294 294 294 294 294 295 296 295 296 296 297 298 299 301 303 305 306 308 308 308 308
305 305 304 303 303 302 302 300 300 300 301 300 299 299 298 295 293 291 289 289 289 291 292 292 292 292 293 294 294 294 294 294 295 296 297 298 300 302 301 304 305 306 305
304 304 303 303 303 302 303 303 302 298 298 298 297 297 296 293 291 289 288 288 288 291 291 291 291 291 291 293 293 293 293 293 294 295 296 296 297 299 301 302 303 303 305
304 303 303 303 303 303 303 303 303 303 299 297 297 296 293 292 289 288 288 290 290 289 289 289 289 289 290 291 292 292 293 292 293 294 295 295 296 297 298 299 301 301 301
303 302 303 303 303 303 302 302 302 299 298 297 296 293 292 291 290 288 288 289 288 288 288 288 288 288 289 290 291 291 292 291 292 293 294 294 295 296 296 297 298 299 300
301 302 302 302 301 301 301 301 301 298 298 299 299 297 293 292 290 288 287 287 287 287 287 287 287 287 287 288 289 290 291 292 292 292 293 294 294 295 295 295 296 298 299
302 300 301 301 301 300 300 301 300 297 299 299 296 295 293 291 289 289 287 286 286 286 286 286 286 286 286 286 287 289 290 291 291 291 292 293 294 294 294 295 295 295 296
301 301 301 301 300 299 300 299 298 298 298 297 295 292 292 291 289 288 287 286 285 285 285 285 285 285 285 285 286 287 288 289 290 290 291 292 293 293 294 294 294 294 294
301 301 300 300 299 298 298 299 298 296 296 295 294 292 291 290 289 288 287 285 285 284 284 284 284 284 284 284 284 285 286 287 288 289 290 291 292 292 293 293 293 293 293
301 300 300 299 297 299 299 297 296 295 294 294 294 293 292 291 290 288 287 285 284 284 284 284 284 283 284 283 283 284 284 286 286 287 289 290 290 291 292 292 292 292 292
300 300 299 298 296 298 296 296 294 294 293 293 293 292 291 289 288 287 286 285 284 284 283 283 283 283 283 282 282 282 283 284 285 286 287 288 288 289 290 290 291 291 291
298 298 298 297 295 296 296 294 293 292 292 291 291 291 290 289 288 287 285 284 284 283 283 283 283 283 282 282 281 281 282 282 283 283 285 286 286 287 287 288 289 289 290
Wind_Speed
24 22 21 18 18 17 16 15 14 13 10 10 9 11 9 11 10 8 8 6 5 9 8 9 11 11 10 11 11 11 12 14 13 24 24 28 29 30 33 32 28 28 27
23 23 21 19 18 17 16 15 13 12 10 10 10 9 9 7 6 6 7 6 8 9 9 10 11 10 12 12 13 15 15 16 18 22 27 27 27 27 29 28 30 27 27
23 23 21 19 18 17 17 15 13 12 11 10 9 9 9 9 9 9 8 8 9 8 9 9 11 12 14 15 15 16 16 17 18 19 23 24 24 26 26 27 30 28 27
22 22 20 19 18 18 16 14 13 11 11 9 11 11 9 10 10 10 9 7 7 8 9 10 11 14 15 16 15 16 17 18 19 18 20 21 21 26 26 26 26 28 29
22 22 19 19 17 16 14 13 11 11 10 9 10 11 10 11 9 8 6 6 9 10 10 10 10 13 15 14 14 16 17 16 17 17 17 17 19 24 22 25 23 24 26
21 21 19 18 16 15 13 12 12 11 10 11 11 11 11 11 10 9 7 8 9 11 11 11 10 12 16 18 18 15 12 13 15 15 13 18 19 24 24 23 22 21 7
21 19 17 17 17 15 13 12 11 10 10 11 11 11 12 10 9 9 11 9 10 11 11 12 13 14 17 18 18 17 13 14 13 13 15 17 20 24 26 25 24 23 18
20 17 16 16 16 14 12 12 10 9 10 10 10 10 11 11 8 8 10 9 9 10 11 12 14 16 18 21 16 15 15 14 14 13 14 17 18 22 24 23 24 23 20
18 16 16 15 14 13 12 10 8 9 9 9 8 10 9 9 10 9 9 8 9 10 10 11 16 15 18 19 15 17 16 16 17 19 19 20 22 24 23 25 20 16 14
16 16 15 13 13 12 10 10 9 9 9 8 8 10 11 9 10 9 8 8 10 11 10 10 15 17 15 16 13 16 17 20 22 23 21 19 19 20 25 26 23 15 11
15 16 14 13 13 13 12 10 8 7 7 7 7 8 9 12 11 10 11 9 10 10 11 13 13 14 12 14 15 14 15 16 17 16 17 18 20 22 25 28 25 19 16
16 15 14 13 11 8 8 7 6 6 7 6 6 6 8 8 10 10 12 13 12 9 11 11 11 12 11 17 16 16 18 15 14 16 17 20 22 24 27 29 22 26 16
16 13 12 11 10 8 7 8 7 6 6 6 5 4 6 6 6 10 12 12 12 10 9 10 12 16 17 15 22 23 19 17 17 18 19 19 20 20 20 24 23 24 19
14 12 12 12 11 9 8 7 7 6 5 6 5 4 5 6 8 10 11 10 11 10 11 12 15 16 18 17 18 20 19 19 18 17 19 19 19 20 20 22 22 26 19
13 12 12 12 10 10 9 8 8 8 5 5 5 5 5 6 7 12 14 10 9 12 9 10 15 18 20 21 20 20 20 21 21 20 20 21 21 22 22 22 21 21 18
13 12 12 11 9 8 9 9 9 9 6 7 8 8 7 7 6 10 13 11 12 13 12 14 16 17 18 18 19 20 21 22 22 20 20 20 21 21 24 23 22 21 20
11 11 11 11 10 10 8 6 7 6 7 8 9 10 9 8 7 9 9 13 17 14 15 15 16 16 16 16 16 17 19 20 19 20 21 22 21 21 22 22 23 25 22
12 13 11 11 10 9 7 5 5 6 7 8 8 10 10 10 11 10 10 12 14 17 16 16 15 15 15 16 16 16 18 19 20 21 21 22 23 22 22 22 22 23 24
12 10 9 10 10 8 7 5 6 6 8 10 11 11 10 10 12 14 16 14 14 15 14 15 14 14 14 14 14 15 16 18 19 20 21 22 23 23 23 23 22 22 22
9 11 12 12 10 7 5 5 6 6 8 9 8 8 7 6 10 12 13 13 14 12 13 14 14 14 14 14 14 15 16 18 19 20 20 21 22 22 23 23 23 22 22
11 12 13 11 9 6 5 6 6 8 8 8 8 9 8 10 10 10 11 12 12 11 12 12 12 13 14 15 15 15 15 17 18 19 20 21 21 22 22 22 22 22 23
10 13 11 10 8 6 7 7 9 9 8 9 11 13 10 9 10 10 10 11 11 11 11 11 12 13 14 14 15 15 15 16 17 19 19 20 20 21 21 21 22 23 23
11 12 10 9 7 8 9 9 10 9 10 11 13 11 8 9 9 9 9 10 9 10 10 11 12 13 14 14 14 15 15 15 15 16 17 18 19 20 19 21 21 22 23
12 11 10 9 8 9 9 9 9 10 11 12 11 9 8 7 7 8 8 8 8 9 9 11 12 14 15 15 15 15 16 17 15 13 15 16 17 18 18 19 19 20 22
9 10 9 8 8 8 10 9 10 11 12 11 10 10 8 7 7 7 7 8 8 8 10 11 11 12 14 16 16 17 17 17 17 15 14 15 16 17 17 17 19 18 20
10 10 9 9 8 8 10 11 12 13 13 12 11 8 7 7 6 6 7 7 7 9 9 9 10 12 13 14 17 18 18 18 17 17 15 15 16 17 17 17 18 17 18
Wind_Direction
123 123 122 123 124 124 123 125 128 120 114 100 91 79 69 60 60 71 82 75 53 56 53 49 39 30 19 11 3 359 352 343 323 323 336 342 343 348 350 351 348 346 341
127 125 125 124 125 127 129 127 125 116 105 95 84 72 60 60 65 74 74 63 53 49 50 46 37 27 17 8 360 355 346 341 331 323 331 332 340 347 346 354 356 355 349
129 126 123 125 128 130 129 127 120 114 106 94 86 70 62 62 66 68 68 64 64 57 52 45 37 24 17 7 4 354 345 339 339 332 324 329 331 346 345 351 356 357 358
131 125 126 128 127 126 124 119 115 110 103 88 70 61 61 63 63 71 73 73 70 60 53 45 34 25 16 6 0 353 345 340 340 334 328 328 332 343 347 345 340 353 347
130 123 123 120 117 118 115 111 107 103 98 79 68 60 67 69 72 70 73 73 67 58 47 32 24 18 12 7 356 346 343 339 333 329 326 327 334 338 344 338 337 336 337
126 119 119 118 122 125 121 119 114 109 95 76 70 77 80 73 71 69 82 65 51 43 29 15 8 359 353 349 352 351 344 328 327 326 320 329 328 331 332 328 334 339 341
119 120 122 126 125 125 125 123 123 117 96 80 74 82 79 70 64 61 63 49 44 32 15 5 360 352 353 346 342 348 347 351 341 329 327 328 321 328 326 325 334 330 327
122 124 128 130 127 131 131 127 125 115 94 81 77 81 79 61 54 46 49 45 38 24 14 6 1 353 348 348 340 345 356 355 353 354 341 332 329 338 348 340 334 332 348
123 129 129 130 131 133 133 128 124 119 96 77 72 72 69 51 45 39 39 26 15 17 13 5 6 360 350 349 349 349 354 354 355 356 5 3 359 7 12 0 346 338 342
129 128 126 126 124 126 127 122 120 113 92 77 71 69 64 50 40 30 34 15 13 3 1 6 348 1 353 356 6 358 354 349 352 357 1 3 2 5 23 13 352 335 329
124 120 116 115 114 114 117 115 117 109 97 87 76 70 61 55 40 39 38 26 13 359 1 1 356 5 9 9 24 8 356 352 348 353 359 3 8 8 8 15 359 356 336
121 117 114 116 116 113 113 113 115 115 111 100 86 73 60 57 41 34 30 20 16 9 7 4 358 17 31 32 24 22 19 13 359 1 2 4 6 2 359 5 5 12 6
124 123 124 121 117 108 109 110 109 111 112 101 90 82 69 50 28 33 27 23 25 30 21 19 27 23 26 21 23 22 18 12 8 5 358 356 353 346 356 8 10 8 8
137 134 139 134 123 111 103 101 102 98 102 98 86 77 71 51 25 20 16 11 22 28 13 3 17 22 22 25 27 24 18 12 8 1 355 350 350 357 6 8 1 4 360
141 144 145 136 127 119 105 93 91 80 91 97 86 67 65 53 32 28 27 20 26 41 34 22 26 23 21 22 23 21 17 15 12 4 359 356 355 357 2 4 5 6 6
149 154 152 146 144 135 124 110 110 103 85 98 90 102 73 71 46 31 37 31 39 67 45 35 30 29 25 18 17 14 16 13 9 7 6 3 360 358 357 1 3 5 3
158 158 160 159 159 154 146 141 138 112 94 101 91 87 87 72 53 40 37 49 51 52 51 39 33 24 23 19 17 17 15 12 11 13 11 8 5 3 4 4 2 2 356
156 162 167 172 165 158 155 144 138 140 138 120 95 106 87 71 61 55 50 47 40 40 42 39 32 24 21 21 13 14 14 14 15 14 14 12 10 8 8 7 7 360 356
157 161 166 164 160 153 148 140 140 131 135 131 119 114 96 78 66 55 56 54 48 41 35 36 32 26 18 22 14 11 13 13 14 14 13 13 12 11 10 8 7 6 2
164 163 154 151 148 147 145 147 144 131 134 143 140 141 127 80 60 51 51 53 51 44 38 36 28 26 19 19 14 10 11 13 13 14 13 12 11 13 12 11 10 8 6
167 160 156 146 144 147 146 144 140 134 135 131 126 143 134 98 79 62 54 50 48 40 36 37 31 27 21 18 16 13 12 10 10 9 9 10 10 11 12 13 13 12 13
156 158 157 148 142 138 146 146 139 141 137 131 128 130 115 96 84 66 56 51 44 37 34 32 29 27 21 18 15 13 10 8 6 5 6 7 8 8 10 12 13 14 14
160 160 154 145 140 151 155 145 143 138 135 134 134 132 120 99 85 72 61 52 44 41 35 36 34 28 22 20 17 14 9 4 1 358 0 3 7 9 10 10 11 12 13
175 169 166 162 155 158 157 150 143 138 137 136 133 130 125 111 97 82 69 59 51 44 39 38 36 33 27 25 20 16 13 16 6 1 5 4 6 7 8 11 12 13 11
173 171 172 166 162 160 152 151 145 142 139 135 128 128 127 116 99 80 70 64 57 52 44 41 35 31 30 28 26 26 23 21 20 20 11 10 9 9 9 12 9 11 13
177 173 174 171 172 168 162 153 148 143 140 135 130 128 127 114 96 82 73 69 65 58 53 43 35 34 32 27 31 31 27 25 23 29 24 17 16 14 12 11 11 12 12